轨道通信卫星FM109星 (ORBCOMM FM109)

导读

ORBCOMM FM 109是由ORBCOMM公司发射的低轨通信卫星,于2014年7月14日成功发射入轨,隶属于ORBCOMM卫星星座系统。该卫星主要面向全球机器对机器(M2M)通信领域,为物联网、交通运输、资产管理等行业提供低功耗、广覆盖的卫星数据通信服务,支持偏远地区设备监测、位置追踪等应用,是全球窄带卫星通信网络建设的重要组成部分,助力天地一体化通信网络的覆盖延伸。

Basic Information
目录编号:
40086
目录名称:
ORBCOMM FM 109
国际标识:
2014-040A
轨道中心:
EARTH
卫星名称:
轨道通信卫星FM109星
卫星全名:
轨道通信卫星FM109星 (ORBCOMM FM109)
卫星状态:
在轨 (已飞行4355 天)
发射日期:
2014-07-14 UTC
国别 :
(ORB)
星等 :
--
Orbit Information
数据来源 国际轨道数据 AOE轨道数据
星历时间 2026-06-16T09:42:14+0800
10小时前
查看轨道信息
2026-06-10T17:00:00+0800
6天前
查看轨道信息
半长轴 7075.048km 7075.064km
偏心率 0.0001895 0.0001892
轨道倾角 47.003° 47.002°
近地点辐角 244.142° 230.233°
升交点赤经 96.764° 123.697°
平近点角 115.927° 69.336°
近地点 695.57km 695.588km
远地点 698.252km 698.266km
周期 98.708分钟 98.709分钟
每日圈数 14.588437 14.588387
Detailed Information
固有亮度:
8
最大亮度:
6.7
平衡模式:
三轴稳定
覆盖范围:
全球
运营商:
轨道通信公司
运营商所在国:
美国
使用方式:
暂无
Satellite Introduction
轨道通信FM(Orbcomm FM)是一系列低地球轨道通信卫星,由美国卫星通信公司 Orbcomm运营。 截至2015年12月,已有63颗此类卫星绕地球运行。该卫星仍在工作。
2D Orbit Map
3D Orbit Map
Orbit Altitude Analysis Chart
Orbit Inclination Analysis Chart
Orbit Comprehensive Analysis Chart
View Comprehensive Chart